Location: ?ern� Novina
(50.6762°N, 14.8696°E)
Time: 03:06:48
(UTC+00:00)

Cosmos 2218 Rocket - Pass Details

Date: 03 March 2021
Orbit: 955 x 1007 km, 82.9° (Epoch: 12 April)

Event Time Altitude Azimuth Distance (km) Brightness Sun altitude
Rises 18:48:38 0° 182° (S) 3,722 6.9 -20.2°
Reaches altitude 10° 18:51:09 10° 181° (S) 2,778 6.2 -20.5°
Maximum altitude 18:57:32 78° 97° (E) 1,032 3.9 -21.5°
Drops below altitude 10° 19:03:57 10° 12° (NNE) 2,787 6.4 -22.5°
Sets 19:06:29 0° 11° (NNE) 3,736 7.1 -22.9°
